| time (UTC) | temp F | wind direction | speed MPH | gust MPH | rain 1hr in | rain 24hr in | rain mn in | humidity % | barometer mb |
| 20260903160014 | 88 | 337 | 2.0 | 8.0 | 0.00 | 0.00 | 0.00 | 66 | 1015.1 |
| 20260903155403 | 89 | 146 | 0.0 | 0.0 | 0.00 | 0.00 | 0.00 | 68 | 1014.2 |
| 20260903154513 | 88 | 159 | 1.0 | 8.0 | 0.00 | 0.00 | 0.00 | 66 | 1015.0 |
| 20260903154400 | 89 | 175 | 0.0 | 6.0 | 0.00 | 0.00 | 0.00 | 67 | 1014.2 |
| 20260903153008 | 87 | 165 | 1.0 | 4.0 | 0.00 | 0.00 | 0.00 | 68 | 1015.0 |
| 20260903152211 | 87 | 308 | 0.0 | 4.0 | 0.00 | 0.00 | 0.00 | 72 | 1014.2 |
| 20260903151507 | 86 | 75 | 0.0 | 3.0 | 0.00 | 0.00 | 0.00 | 74 | 1015.0 |
| 20260903151216 | 85 | 354 | 0.0 | 4.0 | 0.00 | 0.00 | 0.00 | 75 | 1014.2 |
| 20260903150144 | 83 | 192 | 0.0 | 4.0 | 0.00 | 0.00 | 0.00 | 75 | 1014.2 |
| 20260903150038 | 83 | 207 | 1.0 | 4.0 | 0.00 | 0.00 | 0.00 | 75 | 1015.0 |
| 20260903145206 | 84 | 132 | 0.0 | 2.0 | 0.00 | 0.00 | 0.00 | 74 | 1014.2 |
| 20260903144527 | 85 | 173 | 0.0 | 3.0 | 0.00 | 0.00 | 0.00 | 74 | 1015.0 |
| 20260903144219 | 86 | 95 | 0.0 | 2.0 | 0.00 | 0.00 | 0.00 | 74 | 1014.2 |
| 20260903143144 | 84 | 321 | 0.0 | 1.0 | 0.00 | 0.00 | 0.00 | 77 | 1014.3 |
| 20260903143036 | 83 | 186 | 0.0 | 2.0 | 0.00 | 0.00 | 0.00 | 76 | 1015.2 |
| 20260903142148 | 84 | 1 | 0.0 | 1.0 | 0.00 | 0.00 | 0.00 | 77 | 1014.4 |
| 20260903141525 | 84 | 99 | 2.0 | 6.0 | 0.00 | 0.00 | 0.00 | 77 | 1015.2 |
| 20260903141144 | 83 | 224 | 0.0 | 4.0 | 0.00 | 0.00 | 0.00 | 79 | 1014.4 |
| 20260903140208 | 83 | 207 | 0.0 | 2.0 | 0.00 | 0.00 | 0.00 | 81 | 1014.4 |
| 20260903140022 | 82 | 121 | 1.0 | 3.0 | 0.00 | 0.00 | 0.00 | 81 | 1015.2 |
| 20260903135215 | 80 | 135 | 0.0 | 4.0 | 0.00 | 0.00 | 0.00 | 83 | 1014.4 |
| 20260903134539 | 80 | 123 | 0.0 | 2.0 | 0.00 | 0.00 | 0.00 | 83 | 1015.2 |
| 20260903133114 | 80 | 109 | 0.0 | 0.0 | 0.00 | 0.00 | 0.00 | 84 | 1014.5 |
| 20260903133014 | 79 | 22 | 0.0 | 4.0 | 0.00 | 0.00 | 0.00 | 84 | 1015.2 |
| 20260903132050 | 79 | 1 | 0.0 | 6.0 | 0.00 | 0.00 | 0.00 | 84 | 1014.5 |
| 20260903131509 | 79 | 87 | 1.0 | 8.0 | 0.00 | 0.00 | 0.00 | 83 | 1015.2 |
| 20260903131058 | 79 | 359 | 0.0 | 2.0 | 0.00 | 0.00 | 0.00 | 84 | 1014.5 |
| 20260903130117 | 79 | 187 | 0.0 | 2.0 | 0.00 | 0.00 | 0.00 | 85 | 1014.4 |
| 20260903130006 | 79 | 298 | 1.0 | 3.0 | 0.00 | 0.00 | 0.00 | 84 | 1015.2 |
| 20260903125100 | 79 | 181 | 0.0 | 2.0 | 0.00 | 0.00 | 0.00 | 85 | 1014.3 |
| 20260903124527 | 78 | 69 | 0.0 | 2.0 | 0.00 | 0.00 | 0.00 | 84 | 1014.9 |
| 20260903123035 | 78 | 56 | 0.0 | 2.0 | 0.00 | 0.00 | 0.00 | 84 | 1014.9 |
| 20260903122958 | 79 | 51 | 0.0 | 0.0 | 0.00 | 0.00 | 0.00 | 85 | 1014.1 |
| 20260903121924 | 79 | 117 | 0.0 | 0.0 | 0.00 | 0.00 | 0.00 | 85 | 1014.0 |
| 20260903121529 | 79 | 136 | 0.0 | 4.0 | 0.00 | 0.00 | 0.00 | 84 | 1014.8 |
| 20260903120024 | 79 | 118 | 0.0 | 2.0 | 0.00 | 0.00 | 0.00 | 84 | 1014.7 |
| 20260903115746 | 79 | 92 | 0.0 | 1.0 | 0.00 | 0.00 | 0.00 | 85 | 1013.9 |
| 20260903114739 | 79 | 81 | 0.0 | 0.0 | 0.00 | 0.00 | 0.00 | 85 | 1013.9 |
| 20260903114519 | 78 | 32 | 0.0 | 2.0 | 0.00 | 0.00 | 0.00 | 85 | 1014.5 |
| 20260903113751 | 79 | 138 | 0.0 | 0.0 | 0.00 | 0.00 | 0.00 | 85 | 1013.7 |
| 20260903113021 | 78 | 173 | 0.0 | 3.0 | 0.00 | 0.00 | 0.00 | 85 | 1014.4 |
| 20260903112756 | 79 | 160 | 0.0 | 2.0 | 0.00 | 0.00 | 0.00 | 85 | 1013.7 |
| 20260903111756 | 79 | 188 | 0.0 | 0.0 | 0.00 | 0.00 | 0.00 | 85 | 1013.7 |
| 20260903111517 | 78 | 140 | 1.0 | 3.0 | 0.00 | 0.00 | 0.00 | 84 | 1014.2 |
| 20260903110820 | 79 | 115 | 0.0 | 0.0 | 0.00 | 0.00 | 0.00 | 85 | 1013.6 |
| 20260903110010 | 79 | 132 | 0.0 | 3.0 | 0.00 | 0.00 | 0.00 | 84 | 1014.3 |
| 20260903105817 | 79 | 139 | 0.0 | 2.0 | 0.00 | 0.00 | 0.00 | 85 | 1013.6 |
| 20260903104530 | 79 | 249 | 0.0 | 3.0 | 0.00 | 0.00 | 0.00 | 85 | 1014.3 |
| 20260903103028 | 79 | 140 | 1.0 | 3.0 | 0.00 | 0.00 | 0.00 | 84 | 1014.4 |
| 20260903102637 | 79 | 128 | 0.0 | 5.0 | 0.00 | 0.00 | 0.00 | 85 | 1013.6 |
| 20260903101626 | 80 | 172 | 0.0 | 0.0 | 0.00 | 0.00 | 0.00 | 84 | 1013.6 |
| 20260903101530 | 79 | 136 | 1.0 | 8.0 | 0.00 | 0.00 | 0.00 | 84 | 1014.3 |
| 20260903100559 | 80 | 79 | 0.0 | 8.0 | 0.00 | 0.00 | 0.00 | 85 | 1013.6 |
| 20260903100032 | 79 | 133 | 1.0 | 10.0 | 0.00 | 0.00 | 0.00 | 85 | 1014.3 |
| 20260903094533 | 79 | 113 | 1.0 | 4.0 | 0.00 | 0.00 | 0.00 | 85 | 1014.4 |
| 20260903093336 | 80 | 133 | 0.0 | 3.0 | 0.00 | 0.00 | 0.00 | 86 | 1013.6 |
| 20260903093040 | 79 | 182 | 1.0 | 4.0 | 0.00 | 0.00 | 0.00 | 85 | 1014.2 |
| 20260903092357 | 80 | 180 | 0.0 | 4.0 | 0.00 | 0.00 | 0.00 | 86 | 1013.6 |
| 20260903091519 | 79 | 103 | 1.0 | 6.0 | 0.00 | 0.00 | 0.00 | 85 | 1014.3 |
| 20260903091354 | 80 | 216 | 0.0 | 5.0 | 0.00 | 0.00 | 0.00 | 86 | 1013.6 |
| 20260903090410 | 79 | 121 | 0.0 | 5.0 | 0.00 | 0.00 | 0.00 | 86 | 1013.6 |
| 20260903090026 | 79 | 118 | 1.0 | 8.0 | 0.00 | 0.00 | 0.00 | 85 | 1014.3 |
| 20260903085430 | 79 | 169 | 0.0 | 4.0 | 0.00 | 0.00 | 0.00 | 85 | 1013.7 |
| 20260903084535 | 79 | 138 | 1.0 | 4.0 | 0.00 | 0.00 | 0.00 | 84 | 1014.4 |
| 20260903084427 | 79 | 117 | 0.0 | 2.0 | 0.00 | 0.00 | 0.00 | 85 | 1013.8 |
| 20260903083032 | 79 | 142 | 1.0 | 8.0 | 0.00 | 0.00 | 0.00 | 84 | 1014.5 |
| 20260903082243 | 80 | 172 | 0.0 | 2.0 | 0.00 | 0.00 | 0.00 | 84 | 1013.6 |
| 20260903081539 | 79 | 101 | 1.0 | 4.0 | 0.00 | 0.00 | 0.00 | 83 | 1014.4 |
| 20260903081217 | 80 | 141 | 0.0 | 0.0 | 0.00 | 0.00 | 0.00 | 83 | 1013.8 |
| 20260903080210 | 80 | 165 | 0.0 | 3.0 | 0.00 | 0.00 | 0.00 | 83 | 1013.9 |
| 20260903080031 | 79 | 161 | 1.0 | 3.0 | 0.00 | 0.00 | 0.00 | 82 | 1014.6 |
| 20260903075152 | 80 | 132 | 0.0 | 0.0 | 0.00 | 0.00 | 0.00 | 82 | 1013.9 |
| 20260903074526 | 80 | 159 | 0.0 | 4.0 | 0.00 | 0.00 | 0.00 | 81 | 1014.5 |
| 20260903073026 | 80 | 159 | 0.0 | 5.0 | 0.00 | 0.00 | 0.00 | 80 | 1014.6 |
| 20260903073016 | 80 | 157 | 0.0 | 1.0 | 0.00 | 0.00 | 0.00 | 81 | 1013.9 |
| 20260903071951 | 80 | 104 | 0.0 | 5.0 | 0.00 | 0.00 | 0.00 | 80 | 1013.8 |
| 20260903071523 | 80 | 138 | 1.0 | 4.0 | 0.00 | 0.00 | 0.00 | 80 | 1014.4 |
| 20260903070938 | 81 | 113 | 0.0 | 0.0 | 0.00 | 0.00 | 0.00 | 80 | 1013.8 |
| 20260903070021 | 80 | 149 | 0.0 | 7.0 | 0.00 | 0.00 | 0.00 | 79 | 1014.3 |
| 20260903065926 | 81 | 148 | 0.0 | 6.0 | 0.00 | 0.00 | 0.00 | 79 | 1013.7 |
| 20260903064922 | 81 | 122 | 0.0 | 6.0 | 0.00 | 0.00 | 0.00 | 79 | 1013.9 |
| 20260903064530 | 81 | 109 | 2.0 | 8.0 | 0.00 | 0.00 | 0.00 | 78 | 1014.7 |
| 20260903063852 | 81 | 111 | 0.0 | 4.0 | 0.00 | 0.00 | 0.00 | 78 | 1013.9 |
| 20260903063031 | 81 | 178 | 1.0 | 5.0 | 0.00 | 0.00 | 0.00 | 77 | 1014.5 |
| 20260903062913 | 81 | 79 | 0.0 | 4.0 | 0.00 | 0.00 | 0.00 | 78 | 1013.9 |
| 20260903061927 | 82 | 128 | 0.0 | 4.0 | 0.00 | 0.00 | 0.00 | 77 | 1013.9 |
| 20260903061512 | 81 | 118 | 2.0 | 7.0 | 0.00 | 0.00 | 0.00 | 76 | 1014.7 |
| 20260903060924 | 82 | 134 | 0.0 | 6.0 | 0.00 | 0.00 | 0.00 | 76 | 1014.0 |
| 20260903060017 | 82 | 118 | 2.0 | 8.0 | 0.00 | 0.00 | 0.00 | 74 | 1014.7 |
| 20260903054758 | 83 | 118 | 1.0 | 7.0 | 0.00 | 0.00 | 0.00 | 71 | 1014.0 |
| 20260903054509 | 83 | 96 | 1.0 | 10.0 | 0.00 | 0.00 | 0.00 | 70 | 1014.9 |
| 20260903053809 | 84 | 80 | 1.0 | 7.0 | 0.00 | 0.00 | 0.00 | 69 | 1014.0 |
| 20260903053004 | 84 | 194 | 2.0 | 7.0 | 0.00 | 0.00 | 0.00 | 67 | 1014.7 |
| 20260903052826 | 84 | 128 | 1.0 | 5.0 | 0.00 | 0.00 | 0.00 | 68 | 1014.1 |
| 20260903051831 | 84 | 143 | 0.0 | 5.0 | 0.00 | 0.00 | 0.00 | 67 | 1013.8 |
| 20260903051520 | 84 | 138 | 1.0 | 7.0 | 0.00 | 0.00 | 0.00 | 66 | 1014.4 |
| 20260903050818 | 85 | 156 | 1.0 | 6.0 | 0.00 | 0.00 | 0.00 | 66 | 1013.7 |
| 20260903050023 | 85 | 106 | 2.0 | 8.0 | 0.00 | 0.00 | 0.00 | 67 | 1014.2 |
| 20260903045753 | 85 | 39 | 0.0 | 7.0 | 0.00 | 0.00 | 0.00 | 68 | 1013.5 |
| 20260903044811 | 86 | 111 | 0.0 | 5.0 | 0.00 | 0.00 | 0.00 | 68 | 1013.4 |
| 20260903044518 | 85 | 169 | 0.0 | 9.0 | 0.00 | 0.00 | 0.00 | 68 | 1014.0 |
| 20260903043749 | 86 | 72 | 1.0 | 7.0 | 0.00 | 0.00 | 0.00 | 67 | 1013.3 |
| 20260903043017 | 86 | 173 | 2.0 | 9.0 | 0.00 | 0.00 | 0.00 | 66 | 1013.9 |
| 20260903042743 | 86 | 149 | 1.0 | 10.0 | 0.00 | 0.00 | 0.00 | 66 | 1013.3 |
| 20260903041749 | 87 | 143 | 1.0 | 10.0 | 0.00 | 0.00 | 0.00 | 65 | 1013.3 |
| 20260903041516 | 87 | 121 | 4.0 | 12.0 | 0.00 | 0.00 | 0.00 | 64 | 1013.9 |
| 20260903040718 | 87 | 137 | 1.0 | 7.0 | 0.00 | 0.00 | 0.00 | 64 | 1013.2 |
| 20260903040011 | 87 | 200 | 2.0 | 8.0 | 0.00 | 0.00 | 0.00 | 64 | 1013.9 |
| 20260903035728 | 88 | 205 | 1.0 | 7.0 | 0.00 | 0.00 | 0.00 | 64 | 1013.2 |
| 20260903034737 | 88 | 132 | 0.0 | 5.0 | 0.00 | 0.00 | 0.00 | 63 | 1013.1 |
| 20260903034511 | 87 | 163 | 0.0 | 6.0 | 0.00 | 0.00 | 0.00 | 62 | 1013.8 |
| 20260903033720 | 88 | 96 | 1.0 | 6.0 | 0.00 | 0.00 | 0.00 | 61 | 1012.9 |
| 20260903033005 | 88 | 130 | 2.0 | 8.0 | 0.00 | 0.00 | 0.00 | 59 | 1013.6 |
| 20260903032736 | 88 | 122 | 0.0 | 7.0 | 0.00 | 0.00 | 0.00 | 59 | 1012.8 |
| 20260903031713 | 89 | 130 | 1.0 | 7.0 | 0.00 | 0.00 | 0.00 | 57 | 1012.7 |
| 20260903031521 | 88 | 94 | 2.0 | 9.0 | 0.00 | 0.00 | 0.00 | 57 | 1013.4 |
| 20260903030730 | 85 | 185 | 0.0 | 5.0 | 0.00 | 0.00 | 0.00 | 59 | 1012.5 |
| 20260903030022 | 81 | 137 | 0.0 | 2.0 | 0.00 | 0.00 | 0.00 | 66 | 1013.0 |
| 20260903025738 | 82 | 135 | 0.0 | 0.0 | 0.00 | 0.00 | 0.00 | 66 | 1012.3 |
| 20260903024753 | 82 | 135 | 0.0 | 0.0 | 0.00 | 0.00 | 0.00 | 65 | 1012.1 |
| 20260903024524 | 82 | 137 | 0.0 | 0.0 | 0.00 | 0.00 | 0.00 | 64 | 1012.9 |
| 20260903023810 | 82 | 135 | 0.0 | 0.0 | 0.00 | 0.00 | 0.00 | 65 | 1012.0 |
| 20260903023025 | 81 | 137 | 0.0 | 0.0 | 0.00 | 0.00 | 0.00 | 65 | 1012.7 |
| 20260903022833 | 82 | 135 | 0.0 | 0.0 | 0.00 | 0.00 | 0.00 | 65 | 1011.9 |
| 20260903021523 | 82 | 137 | 0.0 | 0.0 | 0.00 | 0.00 | 0.00 | 63 | 1012.5 |
| 20260903020741 | 83 | 135 | 0.0 | 0.0 | 0.00 | 0.00 | 0.00 | 63 | 1011.7 |
| 20260903020010 | 83 | 137 | 0.0 | 0.0 | 0.00 | 0.00 | 0.00 | 62 | 1012.3 |
| 20260903015722 | 84 | 135 | 0.0 | 0.0 | 0.00 | 0.00 | 0.00 | 62 | 1011.5 |
| 20260903014718 | 84 | 135 | 0.0 | 0.0 | 0.00 | 0.00 | 0.00 | 60 | 1011.5 |
| 20260903014508 | 84 | 137 | 0.0 | 0.0 | 0.00 | 0.00 | 0.00 | 60 | 1012.2 |
| 20260903013009 | 85 | 137 | 0.0 | 0.0 | 0.00 | 0.00 | 0.00 | 58 | 1012.0 |
| 20260903012552 | 86 | 135 | 0.0 | 0.0 | 0.00 | 0.00 | 0.00 | 56 | 1011.3 |
| 20260903011525 | 86 | 137 | 0.0 | 0.0 | 0.00 | 0.00 | 0.00 | 58 | 1012.0 |
| 20260903010433 | 87 | 135 | 0.0 | 0.0 | 0.00 | 0.00 | 0.00 | 55 | 1011.1 |
| 20260903010024 | 87 | 137 | 0.0 | 0.0 | 0.00 | 0.00 | 0.00 | 54 | 1011.9 |
| 20260903005407 | 89 | 135 | 0.0 | 0.0 | 0.00 | 0.00 | 0.00 | 52 | 1011.2 |
| 20260903004533 | 90 | 137 | 0.0 | 0.0 | 0.00 | 0.00 | 0.00 | 47 | 1012.0 |
| 20260903004344 | 91 | 135 | 0.0 | 0.0 | 0.00 | 0.00 | 0.00 | 47 | 1011.2 |
| 20260903003323 | 93 | 135 | 0.0 | 0.0 | 0.00 | 0.00 | 0.00 | 45 | 1011.2 |
| 20260903003026 | 92 | 137 | 0.0 | 1.0 | 0.00 | 0.00 | 0.00 | 43 | 1012.0 |
| 20260903001521 | 93 | 97 | 0.0 | 2.0 | 0.00 | 0.00 | 0.00 | 43 | 1011.9 |
| 20260903001231 | 94 | 93 | 0.0 | 0.0 | 0.00 | 0.00 | 0.00 | 43 | 1011.2 |
| 20260903000016 | 95 | 175 | 0.0 | 2.0 | 0.00 | 0.00 | 0.00 | 39 | 1012.0 |
| 20260902234515 | 95 | 264 | 0.0 | 3.0 | 0.00 | 0.00 | 0.00 | 37 | 1012.1 |
| 20260902233917 | 96 | 85 | 0.0 | 3.0 | 0.00 | 0.00 | 0.00 | 40 | 1011.4 |
| 20260902233009 | 96 | 128 | 0.0 | 2.0 | 0.00 | 0.00 | 0.00 | 38 | 1012.2 |
| 20260902232918 | 97 | 57 | 0.0 | 1.0 | 0.00 | 0.00 | 0.00 | 39 | 1011.5 |
| 20260902231849 | 98 | 136 | 0.0 | 2.0 | 0.00 | 0.00 | 0.00 | 39 | 1011.4 |
| 20260902231528 | 97 | 46 | 0.0 | 3.0 | 0.00 | 0.00 | 0.00 | 37 | 1012.2 |
| 20260902230834 | 98 | 61 | 0.0 | 4.0 | 0.00 | 0.00 | 0.00 | 36 | 1011.3 |
| 20260902230028 | 97 | 139 | 1.0 | 6.0 | 0.00 | 0.00 | 0.00 | 36 | 1012.2 |
| 20260902225853 | 97 | 120 | 0.0 | 4.0 | 0.00 | 0.00 | 0.00 | 36 | 1011.4 |
| 20260902224530 | 98 | 310 | 0.0 | 5.0 | 0.00 | 0.00 | 0.00 | 35 | 1012.2 |
| 20260902223735 | 98 | 293 | 0.0 | 4.0 | 0.00 | 0.00 | 0.00 | 38 | 1011.4 |
| 20260902223027 | 97 | 180 | 1.0 | 6.0 | 0.00 | 0.00 | 0.00 | 37 | 1012.3 |
| 20260902222703 | 97 | 181 | 0.0 | 4.0 | 0.00 | 0.00 | 0.00 | 39 | 1011.4 |
| 20260902221717 | 98 | 277 | 0.0 | 1.0 | 0.00 | 0.00 | 0.00 | 39 | 1011.5 |
| 20260902221526 | 97 | 280 | 0.0 | 3.0 | 0.00 | 0.00 | 0.00 | 39 | 1012.3 |
| 20260902220649 | 97 | 120 | 0.0 | 3.0 | 0.00 | 0.00 | 0.00 | 39 | 1011.6 |
| 20260902220020 | 96 | 63 | 1.0 | 4.0 | 0.00 | 0.00 | 0.00 | 38 | 1012.5 |
| 20260902215628 | 97 | 146 | 0.0 | 1.0 | 0.00 | 0.00 | 0.00 | 38 | 1011.7 |
| 20260902214519 | 98 | 132 | 0.0 | 3.0 | 0.00 | 0.00 | 0.00 | 38 | 1012.6 |
| 20260902213532 | 98 | 218 | 0.0 | 4.0 | 0.00 | 0.00 | 0.00 | 39 | 1011.8 |
| 20260902213015 | 97 | 127 | 1.0 | 5.0 | 0.00 | 0.00 | 0.00 | 39 | 1012.7 |
| 20260902212519 | 98 | 68 | 1.0 | 4.0 | 0.00 | 0.00 | 0.00 | 40 | 1011.8 |
| 20260902211531 | 97 | 296 | 0.0 | 2.0 | 0.00 | 0.00 | 0.00 | 38 | 1012.9 |
| 20260902211521 | 98 | 294 | 0.0 | 2.0 | 0.00 | 0.00 | 0.00 | 39 | 1011.9 |
| 20260902210537 | 98 | 170 | 0.0 | 4.0 | 0.00 | 0.00 | 0.00 | 38 | 1012.0 |
| 20260902210048 | 97 | 297 | 1.0 | 6.0 | 0.00 | 0.00 | 0.00 | 39 | 1013.1 |
| 20260902205559 | 97 | 65 | 1.0 | 7.0 | 0.00 | 0.00 | 0.00 | 39 | 1012.2 |
| 20260902204529 | 97 | 180 | 1.0 | 9.0 | 0.00 | 0.00 | 0.00 | 39 | 1013.3 |
| 20260902203425 | 97 | 79 | 1.0 | 5.0 | 0.00 | 0.00 | 0.00 | 41 | 1012.5 |
| 20260902203028 | 96 | 178 | 1.0 | 6.0 | 0.00 | 0.00 | 0.00 | 40 | 1013.5 |
| 20260902202425 | 97 | 127 | 0.0 | 2.0 | 0.00 | 0.00 | 0.00 | 41 | 1012.8 |
| 20260902201531 | 97 | 278 | 1.0 | 5.0 | 0.00 | 0.00 | 0.00 | 41 | 1013.7 |
| 20260902201433 | 97 | 186 | 0.0 | 4.0 | 0.00 | 0.00 | 0.00 | 41 | 1012.9 |
| 20260902200402 | 97 | 308 | 0.0 | 5.0 | 0.00 | 0.00 | 0.00 | 42 | 1013.2 |
| 20260902200032 | 97 | 86 | 2.0 | 6.0 | 0.00 | 0.00 | 0.00 | 41 | 1014.1 |
| 20260902195339 | 98 | 97 | 0.0 | 5.0 | 0.00 | 0.00 | 0.00 | 40 | 1013.4 |
| 20260902194533 | 97 | 128 | 1.0 | 5.0 | 0.00 | 0.00 | 0.00 | 42 | 1014.3 |
| 20260902193016 | 98 | 286 | 2.0 | 4.0 | 0.00 | 0.00 | 0.00 | 41 | 1014.6 |
| 20260902191515 | 97 | 59 | 0.0 | 5.0 | 0.00 | 0.00 | 0.00 | 42 | 1014.9 |
| 20260902191006 | 97 | 308 | 1.0 | 7.0 | 0.00 | 0.00 | 0.00 | 42 | 1014.2 |
| 20260902190014 | 96 | 157 | 0.0 | 7.0 | 0.00 | 0.00 | 0.00 | 43 | 1014.1 |
| 20260902190011 | 96 | 149 | 2.0 | 9.0 | 0.00 | 0.00 | 0.00 | 45 | 1015.0 |
| 20260902185020 | 98 | 302 | 0.0 | 5.0 | 0.00 | 0.00 | 0.00 | 43 | 1014.3 |
| 20260902184508 | 96 | 188 | 0.0 | 4.0 | 0.00 | 0.00 | 0.00 | 45 | 1015.2 |
| 20260902184018 | 97 | 132 | 0.0 | 5.0 | 0.00 | 0.00 | 0.00 | 44 | 1014.5 |
| 20260902183031 | 97 | 96 | 1.0 | 4.0 | 0.00 | 0.00 | 0.00 | 48 | 1015.5 |
| 20260902183003 | 97 | 92 | 0.0 | 3.0 | 0.00 | 0.00 | 0.00 | 49 | 1014.7 |
| 20260902182017 | 96 | 248 | 0.0 | 6.0 | 0.00 | 0.00 | 0.00 | 46 | 1014.9 |
| 20260902181530 | 95 | 15 | 1.0 | 7.0 | 0.00 | 0.00 | 0.00 | 44 | 1015.9 |
| 20260902181023 | 97 | 312 | 1.0 | 6.0 | 0.00 | 0.00 | 0.00 | 48 | 1015.0 |
| 20260902180026 | 95 | 109 | 1.0 | 6.0 | 0.00 | 0.00 | 0.00 | 52 | 1016.1 |
| 20260902174806 | 95 | 124 | 0.0 | 4.0 | 0.00 | 0.00 | 0.00 | 50 | 1015.4 |
| 20260902174526 | 93 | 179 | 1.0 | 4.0 | 0.00 | 0.00 | 0.00 | 49 | 1016.3 |
| 20260902173740 | 94 | 150 | 0.0 | 4.0 | 0.00 | 0.00 | 0.00 | 49 | 1015.5 |
| 20260902173023 | 94 | 214 | 0.0 | 4.0 | 0.00 | 0.00 | 0.00 | 48 | 1016.4 |
| 20260902172736 | 95 | 118 | 0.0 | 4.0 | 0.00 | 0.00 | 0.00 | 48 | 1015.7 |
| 20260902171743 | 94 | 112 | 0.0 | 5.0 | 0.00 | 0.00 | 0.00 | 50 | 1015.8 |
| 20260902171520 | 95 | 277 | 1.0 | 7.0 | 0.00 | 0.00 | 0.00 | 49 | 1016.6 |
| 20260902170714 | 93 | 120 | 1.0 | 5.0 | 0.00 | 0.00 | 0.00 | 47 | 1015.9 |
| 20260902170013 | 94 | 130 | 0.0 | 6.0 | 0.00 | 0.00 | 0.00 | 51 | 1016.8 |
| 20260902165645 | 94 | 328 | 0.0 | 4.0 | 0.00 | 0.00 | 0.00 | 54 | 1016.0 |
| 20260902164619 | 92 | 137 | 0.0 | 4.0 | 0.00 | 0.00 | 0.00 | 54 | 1016.1 |
| 20260902164516 | 92 | 90 | 2.0 | 5.0 | 0.00 | 0.00 | 0.00 | 54 | 1016.8 |
| 20260902163603 | 92 | 58 | 0.0 | 2.0 | 0.00 | 0.00 | 0.00 | 57 | 1016.1 |
| 20260902163030 | 92 | 153 | 0.0 | 3.0 | 0.00 | 0.00 | 0.00 | 53 | 1016.8 |
| 20260902162531 | 92 | 241 | 0.0 | 2.0 | 0.00 | 0.00 | 0.00 | 54 | 1016.0 |
| 20260902161533 | 92 | 101 | 0.0 | 3.0 | 0.00 | 0.00 | 0.00 | 56 | 1016.8 |